Temperature
22 21 20 19 18 19 21 25 27 28 29 29 29 28 27 26 24 22 22 23 23 23 22 21 21 21 21 21 21 20 20 20 20 20 20 19 19 19 19 19 19 19 19 19 19 19 19 19 19
22 21 20 19 19 21 23 27 28 29 29 29 29 28 27 25 23 22 22 23 23 23 22 21 21 21 21 21 21 20 20 20 20 20 20 19 19 19 19 19 19 19 19 19 19 19 19 19 19
21 21 20 18 20 22 26 28 29 30 30 30 29 28 27 25 23 23 23 23 23 23 22 22 21 21 21 21 21 20 20 20 20 20 20 19 19 19 19 19 19 19 19 19 19 19 19 19 19
22 20 20 19 22 25 27 29 30 29 29 29 28 27 26 26 25 24 23 23 23 23 22 22 22 21 21 21 21 21 20 20 20 20 20 20 19 19 19 19 19 19 19 19 19 19 19 19 19
22 21 20 21 23 27 29 30 30 28 28 27 27 25 25 25 25 24 23 23 24 23 22 22 22 22 21 21 21 21 21 20 20 20 20 20 20 20 19 19 19 19 19 19 19 19 19 20 20
22 21 21 22 25 29 29 30 29 28 27 27 26 25 24 24 24 23 23 24 23 23 22 22 22 22 21 21 21 21 21 21 20 20 20 20 20 20 20 19 19 19 19 19 19 19 19 20 20
22 21 22 24 25 28 29 29 28 27 26 26 26 24 24 23 23 23 23 23 23 23 22 22 22 21 21 21 21 21 21 21 20 20 20 20 20 20 20 19 19 19 19 19 19 19 19 19 20
25 21 23 23 26 27 28 28 27 26 25 25 26 24 24 23 23 22 22 22 22 22 22 21 21 21 21 21 21 20 20 20 20 20 20 20 20 20 19 19 19 19 19 19 19 19 19 19 19
25 21 21 24 26 27 27 26 25 25 24 24 24 24 24 24 23 22 21 21 21 21 21 21 20 20 20 20 20 20 20 20 20 20 20 20 20 19 19 19 19 19 19 19 18 18 19 19 19
25 20 22 25 27 27 26 26 25 24 23 23 23 23 24 23 22 22 21 20 20 20 20 20 20 20 20 20 19 19 19 19 19 19 19 19 19 19 19 19 19 18 18 18 18 18 18 18 18
25 23 24 26 28 27 25 23 23 22 21 21 21 22 23 23 22 21 20 20 20 19 19 19 19 19 19 19 19 19 19 19 19 18 18 18 18 18 18 18 18 18 18 18 18 17 17 18 18
25 25 27 28 28 27 25 22 21 21 20 20 20 21 22 21 21 20 19 19 19 19 19 19 19 19 19 19 18 18 18 18 18 18 18 18 18 18 18 18 18 17 17 17 17 17 17 17 17
25 26 28 27 26 25 23 21 20 19 19 19 19 20 20 20 19 19 19 19 19 19 19 19 19 19 19 18 18 18 18 18 18 18 18 17 17 17 17 17 17 17 17 17 17 17 17 17 17
27 26 26 26 25 24 22 21 20 19 19 19 19 18 19 19 18 18 18 18 19 19 19 19 19 19 19 18 18 18 18 18 18 18 17 17 17 17 17 17 17 17 17 17 17 17 17 16 16
28 25 24 24 24 23 22 20 19 18 18 18 18 18 18 18 18 18 18 18 18 18 18 18 18 18 18 18 18 18 18 17 17 17 17 17 17 17 17 17 17 17 17 17 16 16 16 16 16
25 23 23 23 23 23 21 18 19 18 18 18 18 18 18 18 18 18 18 18 18 18 18 18 18 18 18 18 17 17 17 17 17 17 17 17 16 16 16 16 16 16 16 16 16 16 16 16 16
23 22 22 22 22 22 20 18 18 18 18 17 18 18 17 17 17 17 18 18 18 18 18 18 18 18 18 17 17 17 17 16 16 16 16 16 16 16 16 16 16 15 15 15 16 15 15 16 16
22 22 22 21 21 21 19 18 18 18 18 17 17 18 18 18 17 18 18 18 18 18 18 18 18 17 17 17 17 16 16 16 16 15 15 15 15 15 15 15 15 15 15 15 15 15 15 15 15
23 22 21 21 21 20 18 18 17 18 18 17 17 18 18 18 18 18 18 18 18 18 18 18 17 17 17 17 16 16 15 15 15 14 14 14 14 14 14 14 14 14 14 14 14 14 14 15 15
23 22 21 21 21 20 18 17 17 17 17 17 18 18 18 18 18 18 18 18 18 18 18 17 17 17 16 16 15 15 15 14 14 14 13 13 13 13 13 13 13 14 14 14 14 14 14 14 14
23 21 21 20 20 19 18 17 17 17 17 18 18 19 19 19 19 19 18 18 18 18 18 17 17 16 16 15 15 14 14 14 14 13 13 13 13 13 13 13 13 13 13 13 14 14 14 14 14
22 23 23 21 19 17 18 17 16 16 17 18 18 19 19 19 19 19 19 18 18 18 17 17 17 16 15 15 14 14 13 13 12 12 12 12 13 13 13 13 13 13 13 13 13 13 13 13 14
23 23 22 21 17 16 17 16 16 16 16 17 18 19 19 20 20 19 19 19 18 18 18 17 16 16 15 14 14 13 13 12 12 12 12 12 12 12 12 12 12 12 12 12 13 13 13 13 13
24 21 19 17 16 16 16 17 17 16 16 17 18 19 20 20 20 20 19 19 18 18 17 17 16 15 15 14 14 13 12 12 11 11 11 11 11 11 12 12 12 12 12 12 12 12 12 13 13
23 20 19 19 17 16 16 17 16 17 17 18 18 19 20 20 20 20 19 19 18 18 17 16 16 15 14 14 13 12 12 11 11 11 10 10 10 10 11 11 11 11 11 11 11 11 12 12 12
24 21 20 20 18 16 16 17 17 18 19 19 19 20 20 20 20 19 19 18 18 17 17 16 15 14 14 13 12 12 11 11 10 10 10 10 10 9 10 10 10 10 10 10 10 11 11 11 12
25 22 21 18 17 16 16 17 18 19 19 20 20 20 20 20 19 19 19 18 18 17 16 15 14 14 13 12 12 11 11 11 10 10 10 9 9 9 9 9 9 9 10 10 10 10 10 11 11
24 23 19 18 18 18 18 18 17 19 19 19 19 20 20 19 19 19 18 18 17 16 16 15 14 13 13 12 11 11 11 10 10 10 9 9 9 9 9 9 9 9 9 9 9 9 10 10 10
25 23 19 17 17 17 17 18 19 18 19 18 18 20 20 19 19 19 18 18 17 16 15 14 13 13 12 11 11 11 10 10 10 9 9 9 9 8 8 8 8 8 9 9 9 9 9 9 10
24 23 20 19 19 17 17 17 20 18 19 19 20 20 20 19 19 18 18 17 16 15 14 13 13 12 12 11 11 10 10 10 9 9 9 9 8 8 8 8 8 8 8 8 8 8 9 9 9
Wind_Speed
17 14 5 3 1 2 5 6 4 2 2 6 11 11 10 8 5 6 3 14 18 17 16 18 18 17 17 18 18 17 16 16 16 16 16 15 15 15 14 13 13 13 12 12 11 10 10 10 10
14 9 3 1 1 2 6 4 2 3 9 12 12 12 10 8 9 10 7 14 18 16 15 16 18 17 17 17 17 17 16 16 15 15 15 15 14 14 13 12 12 12 12 11 11 11 10 10 10
11 7 3 2 3 5 5 4 2 5 9 8 6 7 6 7 10 7 11 18 16 13 15 17 18 17 17 16 16 16 16 15 15 14 14 14 14 13 13 12 12 11 11 12 12 11 11 11 10
6 3 1 2 8 10 8 8 2 7 8 8 9 7 6 5 6 12 19 18 17 12 14 17 18 17 17 16 15 15 15 14 14 14 14 14 14 13 13 13 12 12 11 12 12 12 12 11 11
3 3 2 5 8 9 9 5 5 9 6 10 13 8 6 7 18 22 20 19 17 13 12 16 18 17 16 16 15 14 14 14 13 13 13 13 13 13 13 13 13 13 12 12 13 13 13 13 12
2 2 1 5 9 9 5 5 14 17 13 12 11 8 5 10 18 19 18 16 16 15 12 15 17 17 16 15 14 14 13 13 13 13 12 12 12 12 13 13 13 14 14 14 14 14 14 14 14
3 2 4 6 8 8 4 7 11 13 11 7 6 7 4 8 11 15 16 15 14 13 11 10 13 14 15 15 14 13 12 12 12 11 11 11 11 12 12 13 13 14 14 15 15 15 16 16 16
5 1 4 4 6 5 4 9 10 12 9 6 6 8 5 6 12 16 15 13 12 10 8 7 9 11 11 12 13 13 12 11 11 11 11 11 11 11 12 13 13 14 15 16 16 17 17 17 17
1 1 5 4 3 4 5 12 11 10 12 9 8 9 8 12 17 17 14 11 10 9 6 6 6 7 8 9 10 11 11 11 11 10 11 11 10 11 12 13 15 16 17 18 18 19 18 18 18
5 4 8 7 4 1 5 10 8 9 13 10 10 11 13 16 16 16 13 11 9 8 6 4 5 4 6 7 8 8 8 9 10 9 10 10 10 11 12 13 17 18 19 20 20 20 19 18 15
5 8 9 10 8 2 7 10 9 10 10 7 10 11 14 18 16 15 13 10 9 8 8 6 5 4 3 2 4 4 4 5 7 9 10 9 9 9 9 8 10 13 16 16 17 18 16 15 12
6 11 10 9 6 2 7 8 10 12 9 11 13 14 16 17 15 14 13 10 8 9 9 7 5 5 4 4 2 2 1 2 3 6 7 6 4 4 4 5 6 7 9 9 10 9 13 14 14
7 11 10 6 4 12 18 15 13 12 12 13 15 16 15 15 13 12 11 9 8 8 8 7 6 6 4 3 2 2 2 2 1 1 1 2 2 3 3 3 4 5 6 6 5 6 8 9 11
6 4 4 3 7 8 17 12 9 9 11 13 13 12 12 12 11 10 9 8 8 7 7 6 7 6 5 4 3 2 3 3 2 2 2 1 1 1 2 3 3 3 5 5 5 6 7 8 8
5 4 6 7 7 5 10 12 8 8 11 12 11 10 11 9 9 8 7 7 7 6 5 5 6 6 6 6 5 4 4 4 3 3 3 2 1 1 1 2 3 3 5 5 4 5 5 7 9
6 5 5 6 7 5 10 9 7 6 10 8 8 8 8 7 7 7 7 6 6 6 6 6 7 8 7 7 5 5 6 5 4 4 4 3 2 1 1 2 3 4 4 3 4 4 5 6 7
6 3 2 4 8 6 9 7 5 5 8 5 5 6 7 6 6 6 6 6 5 5 5 6 7 7 7 7 6 5 6 5 5 5 4 3 2 2 1 2 3 4 3 3 4 4 4 5 6
3 1 1 3 5 9 9 7 6 4 6 3 2 4 5 6 6 6 6 6 5 5 5 6 5 5 5 5 5 5 6 6 6 5 4 4 3 3 2 2 3 3 3 4 4 5 5 5 5
2 2 2 2 3 7 9 7 4 3 3 1 1 3 5 6 6 7 7 7 6 5 5 5 5 3 3 3 3 3 4 5 5 4 6 6 6 5 2 2 3 3 3 4 5 4 5 4 3
3 3 1 1 4 6 8 6 2 1 2 5 6 6 7 7 7 7 7 7 7 6 6 6 6 4 4 2 1 1 1 2 2 3 5 8 8 8 5 3 4 3 2 4 4 3 3 3 2
3 7 7 5 4 6 6 3 1 3 3 5 7 7 8 10 10 9 9 9 7 7 8 7 6 5 4 3 1 2 3 3 4 4 5 6 9 9 7 5 4 3 2 2 3 3 2 3 3
4 8 11 10 7 2 1 2 4 3 3 5 7 7 9 9 9 9 8 8 8 7 6 6 6 5 4 3 2 1 0 2 3 3 4 7 7 8 8 6 4 3 2 2 3 2 1 2 3
5 6 8 8 6 3 1 2 3 1 4 6 8 8 10 10 10 9 8 7 6 5 5 6 5 4 3 3 3 2 1 3 3 4 5 6 6 7 7 6 4 3 2 3 3 3 2 2 2
10 8 8 6 4 3 1 1 3 4 6 6 8 8 10 9 9 8 5 4 3 4 4 5 5 3 3 3 2 2 3 3 4 5 5 5 5 5 7 7 5 4 4 4 4 4 4 3 3
6 6 3 3 4 1 2 1 6 7 7 9 9 9 9 8 6 4 5 5 4 5 4 4 4 3 3 3 3 3 4 3 4 4 4 4 4 4 6 5 5 5 5 6 5 5 5 4 4
3 8 6 4 4 1 2 3 7 6 7 7 8 6 4 4 5 7 7 6 5 5 4 3 3 2 3 3 4 4 4 3 3 4 4 5 4 5 5 5 5 6 6 7 6 5 6 5 5
3 2 6 7 5 3 2 4 7 5 3 4 5 5 6 7 8 7 6 6 5 4 4 4 4 3 3 4 4 4 4 4 5 5 5 5 5 6 6 6 6 6 6 6 6 5 6 6 6
6 5 7 5 4 3 2 4 5 6 6 5 6 8 8 7 7 7 6 5 4 4 3 3 3 3 4 4 4 4 4 5 5 5 6 7 6 6 7 7 7 7 7 7 6 6 6 6 7
3 5 6 5 6 6 4 5 6 10 9 8 8 9 9 8 7 5 5 4 4 3 3 2 3 3 4 5 5 5 5 5 5 6 7 7 7 7 7 8 8 8 8 8 7 7 7 7 7
4 6 7 5 1 4 5 5 4 9 9 10 9 8 8 8 6 6 5 4 3 3 3 4 4 5 5 5 5 5 6 6 6 7 8 8 8 8 8 8 8 9 9 8 8 9 9 8 8
Wind_Direction
147 143 142 125 97 242 255 247 206 225 40 62 77 82 79 59 95 126 88 137 136 142 144 143 139 138 136 135 136 136 135 133 132 132 132 132 132 132 134 136 139 141 143 145 145 143 140 137 134
147 146 140 99 203 275 263 247 183 159 130 109 84 80 76 74 87 106 111 131 135 135 134 138 136 135 135 136 137 140 141 141 140 141 142 142 142 144 146 149 151 153 155 156 156 156 154 151 149
158 167 150 183 236 227 256 260 166 125 122 108 87 56 64 93 109 117 134 135 130 128 130 137 136 135 136 137 139 142 145 147 148 149 151 152 154 156 159 162 165 168 169 171 170 168 166 164 164
150 163 257 229 249 249 251 264 140 105 72 68 90 58 40 57 106 129 137 136 129 125 130 138 137 137 137 139 141 145 148 152 155 158 160 162 165 169 172 175 178 182 184 184 181 179 177 177 177
123 150 237 270 262 262 268 240 118 100 86 86 88 82 47 46 114 130 138 137 132 130 133 139 140 140 140 142 144 147 152 157 161 165 169 173 176 180 184 186 190 193 194 193 192 190 187 187 189
153 158 218 273 283 292 304 109 104 96 100 95 91 91 69 109 124 137 138 135 135 137 137 143 145 144 145 147 150 153 157 163 168 172 178 183 187 191 195 198 201 202 203 203 203 201 198 197 197
175 187 237 269 301 314 10 82 91 100 89 77 100 95 90 104 131 135 131 129 133 138 139 141 148 151 153 156 158 161 165 170 176 181 188 194 199 204 209 211 213 213 211 211 213 210 208 206 204
178 99 290 302 312 331 26 70 78 84 81 79 83 105 117 126 119 121 120 120 123 128 136 140 149 156 160 165 169 171 175 180 186 192 199 205 211 217 222 224 226 226 223 222 221 218 216 212 211
158 48 267 264 291 318 30 80 70 62 82 68 65 88 104 108 109 114 114 111 117 125 135 145 151 160 166 172 180 182 188 194 198 204 210 215 221 228 232 233 232 233 232 230 227 224 223 219 218
138 192 240 235 260 281 61 80 88 79 73 68 71 66 77 86 101 111 113 111 111 121 128 129 132 147 165 180 179 190 201 207 210 215 221 223 225 231 238 242 243 241 239 237 233 229 228 225 223
201 223 254 272 269 158 96 67 56 97 71 79 96 88 79 81 87 96 97 98 99 102 102 98 97 101 124 139 150 181 212 218 221 226 229 229 230 237 246 248 255 253 248 242 238 234 232 228 223
243 260 260 272 268 142 110 98 69 68 90 91 93 91 85 83 89 96 98 95 90 87 87 87 84 79 73 82 103 129 168 208 218 229 236 228 230 241 247 248 255 258 252 242 236 230 233 233 230
255 268 279 293 61 91 95 90 92 78 83 86 86 82 85 89 92 97 103 103 94 86 83 79 79 76 66 62 48 63 48 44 48 40 262 207 210 243 257 269 267 263 256 246 237 232 231 233 233
265 293 330 21 91 92 98 91 85 88 89 84 80 80 85 90 96 99 97 92 87 83 80 76 65 61 59 55 36 36 40 44 45 29 14 70 182 227 252 276 279 275 267 256 248 240 235 237 235
320 335 14 32 61 89 93 65 81 106 95 91 90 92 92 91 95 99 105 101 98 90 85 88 76 55 50 42 30 29 20 26 25 13 24 34 34 270 270 284 290 288 287 276 264 252 240 238 238
4 30 32 7 36 47 78 86 93 94 91 90 100 104 101 97 99 102 104 103 102 94 77 63 68 56 47 40 29 21 14 12 4 357 353 360 5 8 349 308 293 294 294 279 268 256 252 248 244
21 29 25 18 26 54 76 100 97 79 82 83 100 113 115 111 106 111 116 119 115 108 99 81 68 60 50 41 28 20 13 4 348 338 334 331 354 19 6 297 287 297 295 285 280 270 255 260 256
290 303 28 40 23 65 76 88 88 77 77 74 115 136 136 136 147 151 148 146 139 129 116 105 88 74 66 48 30 18 8 355 347 338 331 332 334 346 351 302 302 305 306 296 283 277 268 257 258
110 83 74 51 58 70 76 75 58 59 80 96 216 193 166 163 169 168 173 169 160 151 141 137 126 111 87 59 42 24 353 340 342 340 343 342 335 331 317 303 306 312 303 294 287 280 279 275 264
80 93 211 46 74 93 93 77 58 141 212 204 208 203 185 177 181 188 193 190 183 177 174 169 160 143 127 125 141 175 268 308 321 333 342 341 334 326 319 292 278 282 293 314 317 299 285 286 254
178 179 194 167 96 73 107 73 240 233 222 222 207 200 191 187 191 196 197 199 193 191 190 180 172 159 155 150 111 22 12 355 349 338 331 324 324 321 314 299 276 263 252 277 300 312 297 285 283
201 204 180 160 127 67 111 193 248 252 243 222 218 209 203 201 199 203 204 200 196 198 185 172 169 164 166 152 132 132 105 289 278 285 301 313 321 323 321 307 291 272 255 264 281 298 290 294 295
182 157 141 133 118 98 33 130 281 262 245 230 223 218 211 210 202 200 201 196 186 174 161 157 153 160 176 177 171 170 230 248 275 299 320 325 326 330 335 326 319 310 289 279 290 307 302 282 281
127 96 79 70 83 67 304 109 279 227 224 228 230 232 222 214 199 198 191 158 136 126 127 139 151 181 205 206 209 214 249 273 298 312 319 318 317 322 332 336 332 320 310 298 289 282 289 284 283
118 111 73 21 30 350 289 291 262 244 237 225 229 237 228 205 188 167 141 124 125 129 137 148 161 198 229 236 253 257 261 263 272 282 280 292 303 307 312 329 330 322 312 303 296 286 282 278 280
174 139 150 186 183 203 307 265 267 259 242 229 231 231 207 154 136 132 137 138 140 144 148 158 174 215 247 256 269 274 271 255 258 261 263 273 273 276 282 297 308 308 307 307 303 290 279 277 272
59 52 153 124 100 100 254 285 299 282 251 215 200 170 143 138 136 139 143 146 153 152 161 173 182 217 252 263 269 270 263 252 259 270 271 274 274 279 288 295 297 297 298 297 300 291 286 283 272
115 116 71 85 120 116 216 223 221 220 213 189 158 149 147 146 143 142 149 161 168 171 180 188 194 218 247 262 262 263 261 264 266 272 278 277 277 278 286 288 288 289 290 290 290 286 282 281 275
45 55 89 95 129 138 190 253 220 197 190 169 165 161 161 163 161 165 171 177 178 182 194 214 234 246 265 267 264 270 272 270 270 269 269 269 269 271 271 272 276 280 282 283 282 279 280 276 278
138 145 130 117 31 124 143 261 271 170 167 157 163 172 174 170 173 177 179 187 203 219 235 244 249 255 258 257 260 263 266 271 273 271 269 266 265 265 262 262 264 269 274 272 272 276 280 271 269
Height
1527 1529 1531 1534 1536 1537 1530 1509 1496 1491 1490 1488 1487 1488 1493 1498 1504 1513 1510 1511 1514 1516 1520 1523 1526 1529 1531 1533 1534 1536 1537 1538 1539 1540 1541 1542 1543 1544 1545 1546 1548 1549 1549 1550 1551 1552 1552 1553 1553
1527 1529 1533 1534 1536 1537 1523 1500 1493 1489 1489 1488 1491 1493 1495 1502 1504 1507 1510 1514 1516 1518 1521 1524 1527 1529 1531 1533 1535 1536 1538 1539 1540 1541 1542 1543 1544 1545 1546 1547 1548 1549 1549 1550 1551 1552 1553 1553 1554
1528 1530 1533 1533 1533 1529 1514 1493 1489 1487 1488 1487 1492 1496 1499 1505 1508 1509 1512 1515 1517 1520 1523 1525 1528 1530 1532 1534 1536 1537 1538 1539 1540 1541 1542 1543 1544 1545 1545 1546 1547 1548 1549 1550 1551 1552 1552 1553 1554
1528 1531 1532 1533 1529 1512 1501 1491 1487 1488 1489 1490 1493 1500 1504 1508 1509 1512 1514 1517 1519 1522 1524 1527 1529 1531 1533 1535 1536 1537 1538 1539 1540 1541 1542 1543 1543 1544 1545 1546 1547 1548 1549 1549 1550 1551 1552 1553 1554
1528 1529 1532 1532 1519 1501 1491 1487 1486 1488 1491 1494 1494 1504 1509 1511 1512 1514 1516 1519 1520 1523 1526 1529 1531 1532 1534 1535 1536 1537 1538 1539 1540 1541 1542 1542 1543 1543 1544 1545 1546 1547 1548 1549 1549 1550 1551 1552 1553
1527 1526 1534 1532 1515 1498 1490 1487 1487 1490 1494 1497 1499 1505 1512 1514 1515 1518 1520 1521 1523 1525 1528 1530 1532 1533 1535 1536 1537 1538 1539 1539 1540 1541 1541 1542 1542 1543 1543 1544 1545 1545 1546 1547 1548 1549 1550 1551 1552
1525 1525 1529 1523 1515 1502 1494 1490 1490 1492 1495 1499 1501 1506 1514 1518 1519 1521 1523 1524 1525 1527 1529 1531 1533 1534 1535 1536 1537 1538 1539 1539 1540 1540 1541 1541 1541 1542 1542 1543 1543 1544 1545 1546 1546 1547 1548 1549 1551
1520 1522 1524 1522 1516 1508 1498 1494 1496 1495 1499 1502 1503 1507 1515 1519 1520 1522 1524 1526 1527 1529 1530 1532 1533 1534 1536 1537 1538 1538 1539 1539 1540 1540 1540 1540 1540 1541 1541 1541 1542 1542 1543 1544 1545 1545 1546 1547 1549
1519 1525 1529 1521 1513 1508 1501 1497 1501 1502 1502 1504 1507 1510 1516 1519 1520 1522 1525 1527 1529 1530 1531 1533 1534 1535 1536 1537 1538 1538 1539 1539 1539 1539 1539 1539 1539 1539 1540 1540 1540 1540 1541 1541 1542 1543 1544 1545 1546
1515 1526 1519 1509 1505 1505 1503 1501 1503 1508 1507 1510 1512 1515 1517 1519 1521 1522 1525 1527 1529 1530 1532 1533 1534 1535 1536 1537 1538 1538 1538 1538 1538 1538 1538 1538 1538 1538 1538 1538 1538 1538 1538 1539 1539 1540 1541 1542 1543
1511 1514 1506 1503 1502 1503 1504 1505 1507 1509 1514 1516 1515 1516 1518 1519 1522 1524 1526 1528 1529 1530 1532 1534 1534 1535 1535 1536 1537 1537 1537 1537 1537 1536 1536 1536 1536 1535 1535 1535 1535 1535 1535 1535 1535 1536 1536 1537 1539
1508 1504 1502 1500 1499 1501 1503 1507 1512 1513 1519 1520 1518 1518 1518 1520 1522 1524 1526 1528 1530 1531 1532 1533 1535 1535 1535 1535 1536 1536 1535 1535 1535 1534 1533 1533 1533 1532 1532 1531 1531 1530 1530 1530 1530 1530 1531 1532 1533
1505 1501 1499 1499 1499 1501 1504 1510 1515 1521 1522 1523 1522 1521 1521 1523 1525 1526 1527 1529 1531 1532 1532 1533 1534 1534 1535 1535 1535 1534 1534 1533 1532 1532 1531 1530 1529 1529 1528 1527 1527 1526 1525 1525 1525 1525 1525 1526 1527
1502 1501 1500 1500 1499 1504 1507 1514 1517 1526 1525 1525 1525 1525 1526 1526 1527 1528 1529 1531 1532 1532 1532 1533 1534 1533 1534 1534 1533 1533 1532 1531 1531 1530 1529 1527 1527 1525 1524 1523 1522 1522 1521 1520 1519 1519 1519 1519 1520
1499 1500 1501 1502 1502 1507 1508 1520 1525 1527 1527 1527 1528 1529 1529 1529 1530 1530 1531 1532 1532 1533 1533 1533 1533 1534 1533 1533 1532 1532 1531 1530 1529 1528 1526 1525 1524 1522 1521 1519 1518 1517 1515 1514 1513 1513 1513 1512 1513
1500 1506 1514 1509 1506 1508 1513 1533 1532 1531 1529 1530 1531 1531 1531 1532 1532 1532 1533 1533 1533 1534 1534 1534 1534 1533 1533 1532 1532 1531 1530 1528 1527 1525 1524 1523 1521 1519 1517 1516 1514 1512 1511 1510 1508 1507 1506 1506 1506
1511 1518 1518 1515 1511 1511 1517 1532 1533 1533 1531 1533 1533 1532 1532 1533 1533 1533 1534 1534 1534 1534 1534 1534 1534 1533 1533 1532 1531 1530 1528 1527 1525 1523 1521 1520 1518 1517 1515 1513 1511 1509 1507 1506 1504 1503 1502 1500 1499
1522 1520 1519 1520 1517 1516 1523 1531 1532 1532 1532 1534 1535 1534 1533 1534 1534 1534 1534 1535 1535 1535 1535 1535 1534 1533 1533 1532 1530 1528 1526 1524 1522 1520 1518 1517 1515 1514 1512 1510 1508 1506 1504 1502 1500 1499 1498 1496 1494
1512 1518 1521 1519 1517 1521 1528 1531 1531 1530 1530 1533 1535 1535 1534 1534 1535 1535 1535 1534 1534 1534 1534 1534 1533 1532 1531 1529 1527 1525 1523 1521 1519 1517 1515 1514 1512 1510 1509 1507 1505 1503 1501 1499 1497 1495 1494 1492 1491
1509 1518 1521 1520 1518 1522 1530 1532 1532 1530 1531 1531 1533 1534 1534 1533 1534 1534 1534 1533 1533 1533 1532 1532 1531 1530 1528 1526 1524 1522 1520 1518 1515 1513 1512 1510 1508 1507 1505 1504 1502 1500 1499 1497 1494 1492 1491 1489 1489
1509 1516 1519 1521 1521 1523 1530 1538 1535 1531 1530 1531 1531 1532 1532 1532 1531 1531 1531 1531 1531 1530 1530 1529 1528 1527 1525 1523 1522 1519 1517 1514 1512 1510 1508 1506 1504 1503 1501 1500 1498 1497 1496 1494 1492 1490 1489 1487 1486
1513 1504 1508 1516 1528 1539 1536 1547 1538 1533 1531 1530 1530 1530 1530 1530 1529 1529 1529 1529 1529 1528 1528 1527 1526 1524 1522 1521 1519 1516 1513 1510 1508 1506 1504 1502 1500 1499 1497 1495 1494 1493 1492 1491 1490 1488 1487 1485 1484
1504 1500 1506 1516 1531 1541 1541 1546 1542 1535 1533 1529 1527 1527 1527 1527 1527 1527 1527 1527 1527 1527 1526 1525 1523 1522 1520 1518 1516 1513 1510 1508 1505 1503 1501 1498 1497 1495 1493 1491 1490 1489 1489 1488 1487 1485 1484 1483 1481
1498 1508 1518 1527 1535 1549 1545 1546 1544 1536 1530 1526 1524 1524 1525 1525 1525 1526 1526 1526 1526 1525 1524 1523 1521 1520 1518 1516 1513 1510 1507 1505 1502 1499 1497 1495 1493 1491 1490 1488 1486 1485 1484 1483 1483 1482 1481 1480 1479
1501 1519 1536 1541 1551 1553 1544 1544 1540 1526 1522 1522 1521 1521 1522 1523 1524 1524 1525 1525 1524 1524 1522 1521 1519 1517 1515 1513 1510 1507 1504 1501 1499 1496 1494 1491 1489 1487 1485 1483 1482 1481 1480 1479 1478 1477 1476 1476 1475
1499 1510 1531 1541 1550 1553 1546 1545 1533 1519 1518 1518 1519 1520 1522 1523 1523 1523 1523 1523 1522 1521 1520 1518 1516 1514 1512 1509 1506 1504 1501 1498 1496 1493 1490 1487 1485 1483 1481 1479 1477 1476 1475 1474 1473 1472 1471 1471 1470
1497 1504 1507 1528 1543 1553 1549 1540 1527 1517 1517 1517 1518 1519 1521 1521 1521 1521 1521 1521 1520 1518 1516 1515 1513 1510 1508 1505 1503 1500 1498 1495 1492 1489 1486 1483 1481 1478 1476 1475 1473 1471 1470 1468 1467 1466 1466 1465 1465
1491 1496 1512 1528 1545 1552 1547 1541 1537 1522 1519 1517 1517 1518 1519 1520 1520 1520 1519 1518 1517 1515 1513 1511 1509 1507 1504 1502 1499 1496 1494 1491 1488 1485 1482 1479 1477 1474 1472 1470 1468 1466 1464 1463 1462 1460 1460 1459 1459
1496 1500 1512 1526 1532 1548 1553 1543 1517 1516 1515 1516 1516 1516 1517 1518 1518 1517 1516 1515 1514 1512 1510 1508 1506 1503 1500 1498 1495 1492 1489 1486 1483 1481 1478 1475 1472 1470 1468 1465 1463 1461 1459 1458 1456 1455 1454 1453 1452
1492 1499 1509 1526 1530 1536 1544 1541 1509 1510 1511 1512 1514 1515 1515 1515 1515 1514 1514 1513 1511 1509 1507 1504 1502 1499 1496 1494 1491 1488 1485 1482 1479 1476 1473 1470 1467 1465 1463 1460 1458 1456 1454 1452 1451 1449 1448 1447 1446